Startpagina
METAR-TAF:

METAR-TAF

Vliegvelden :

Boulder, Colorado, Verenigde Staten

breedte: 40-02-22N, lengte: 105-13-33W, hoogte: 1612 m

Actueel weer

Dit bericht is 42 minuten geleden gemaakt, om 23:12 UTC
Wind 3 kt uit het noorden
Temperatuur 13°C
Vochtigheid 26%
Druk 1016 hPa
Zicht: 16.1 km
Onbewolkt

METAR: KBDU 212312Z AUTO 35003KT 10SM CLR 13/M06 A3001 RMK AO2

Tijdstip: 17:54 (23:54 UTC)


TAF: ontbreekt

Waarnemingen en weersverwachtingen van meer dan 4000 vliegvelden (METAR en TAF).

De beschikbare stations zijn de gele en rode punten op de kaart.

Ga met uw muis naar het station om de naam te zien.

Klik dan om waarnemingen en weersverwachtingen te zien.

kaart wijzigen: klik op de groene knoppen met een zwart kruis om in te zoomen, op de groene knop met een streepje om uit te zoomen of op de groene pijlen voor aangrenzende kaarten.


METAR-TAF: